tititudorancea.com
Station Historical Data
Daily Summary for October 15, 2018 Units:  Metric    English   Both
« Previous Day
Next Day »
Daily Weekly Monthly Yearly Custom
  High: Low: Average:
Temperature: -17.8 °C 16.9 °C 20.4 °C
Dew Point: -17.8 °C 8.3 °C 10.9 °C
Humidity: Humidity % 41 % 55 %
Wind Speed: 0 km/h 11.1 km/h 24.5 km/h
Wind Gust: 0 km/h - -
Wind:- - NE
Pressure: 0 hPa 1007.3 hPa -
Precipitation: 1.8 mm    
Historical Graphs
 
 
Ararat weather Find more about Weather in Ararat, AU


 



 


Tabular Data for October 15, 2018
Time Temperature Dew Point Pressure Wind Wind Speed Wind Gust Humidity Rainfall Rate (Hourly)
-17.8 °C -17.8 °C 0 hPa Calm     Humidity % 0 mm
00:04 21.4 °C 9.3 °C 1014.8 hPa NNE 22.2 km/h 13.7 km/h 46 % 0 mm
00:09 21.4 °C 9.3 °C 1014.8 hPa NNE 18.5 km/h 14 km/h 46 % 0 mm
00:14 21.4 °C 9.3 °C 1014.8 hPa NNE 20.9 km/h 14.6 km/h 46 % 0 mm
00:19 21.4 °C 9.3 °C 1014.8 hPa NNE 22.2 km/h 13.4 km/h 46 % 0 mm
00:24 21.4 °C 9.3 °C 1014.8 hPa NNE 24.1 km/h 21.2 km/h 46 % 0 mm
00:29 21.5 °C 9.1 °C 1014.8 hPa NNE 31.5 km/h 18.2 km/h 45 % 0 mm
00:34 21.5 °C 9.1 °C 1015.1 hPa NNE 27.8 km/h 18.8 km/h 45 % 0 mm
00:39 21.4 °C 9 °C 1014.8 hPa NNE 31.5 km/h 24.3 km/h 45 % 0 mm
00:44 21.4 °C 9 °C 1014.8 hPa NNE 20.4 km/h 16.9 km/h 45 % 0 mm
00:49 21.3 °C 8.8 °C 1014.8 hPa NNE 27.8 km/h 18.3 km/h 45 % 0 mm
00:54 21.3 °C 8.5 °C 1014.8 hPa NNE 31.5 km/h 15.9 km/h 44 % 0 mm
00:59 21.2 °C 8.8 °C 1014.8 hPa NNE 24.1 km/h 13.2 km/h 45 % 0 mm
01:04 21.1 °C 8.7 °C 1014.8 hPa NNE 29.6 km/h 18.5 km/h 45 % 0 mm
01:09 21.1 °C 8.7 °C 1014.8 hPa NNE 24.1 km/h 21.1 km/h 45 % 0 mm
01:14 21.1 °C 8.7 °C 1014.8 hPa NNE 30.6 km/h 20.6 km/h 45 % 0 mm
01:19 21.1 °C 8.7 °C 1014.8 hPa NNE 25.9 km/h 16.9 km/h 45 % 0 mm
01:24 20.9 °C 8.6 °C 1014.8 hPa North 22.5 km/h 12.7 km/h 45 % 0 mm
01:29 20.9 °C 8.5 °C 1014.4 hPa NNE 24.1 km/h 14.8 km/h 45 % 0 mm
01:34 20.9 °C 8.5 °C 1014.4 hPa NNE 22.2 km/h 14 km/h 45 % 0 mm
01:39 20.8 °C 8.4 °C 1014.8 hPa NNE 18.5 km/h 14.6 km/h 45 % 0 mm
01:44 20.9 °C 8.5 °C 1014.8 hPa NNE 16.7 km/h 14.5 km/h 45 % 0 mm
01:49 20.8 °C 8.4 °C 1014.4 hPa NNE 18.5 km/h 11.1 km/h 45 % 0 mm
01:54 20.8 °C 8.4 °C 1014.4 hPa NE 24.1 km/h 15 km/h 45 % 0 mm
01:59 20.7 °C 8.3 °C 1014.4 hPa NE 22.2 km/h 11.7 km/h 45 % 0 mm
02:04 20.7 °C 8.3 °C 1014.4 hPa NNE 31.5 km/h 13.5 km/h 45 % 0 mm
02:09 20.7 °C 8.3 °C 1014.1 hPa NNE 31.5 km/h 14.5 km/h 45 % 0 mm
02:14 20.6 °C 8.6 °C 1014.1 hPa NNE 18.5 km/h 12.4 km/h 46 % 0 mm
02:19 20.4 °C 8.4 °C 1014.1 hPa NE 16.1 km/h 12.2 km/h 46 % 0 mm
02:24 20.3 °C 8.7 °C 1014.1 hPa NNE 18.5 km/h 11.1 km/h 47 % 0 mm
02:29 20.2 °C 8.8 °C 1014.1 hPa NNE 20.4 km/h 13.4 km/h 48 % 0 mm
02:34 20.1 °C 8.7 °C 1013.8 hPa NE 25.9 km/h 13.8 km/h 48 % 0 mm
02:39 19.9 °C 8.6 °C 1013.8 hPa NNE 22.2 km/h 15.6 km/h 48 % 0 mm
02:44 19.8 °C 8.8 °C 1013.8 hPa NNE 24.1 km/h 14.2 km/h 49 % 0 mm
02:49 19.7 °C 8.7 °C 1013.8 hPa NE 18.5 km/h 11.3 km/h 49 % 0 mm
02:54 19.6 °C 8.9 °C 1013.8 hPa NE 18.5 km/h 9.5 km/h 50 % 0 mm
02:59 19.4 °C 8.7 °C 1013.8 hPa NE 20.9 km/h 11.6 km/h 50 % 0 mm
03:04 19.3 °C 8.9 °C 1013.4 hPa NNE 22.2 km/h 14.8 km/h 51 % 0 mm
03:09 19.2 °C 9.1 °C 1013.4 hPa NE 18.5 km/h 6.9 km/h 52 % 0 mm
03:14 19 °C 8.9 °C 1013.4 hPa NE 13 km/h 9.5 km/h 52 % 0 mm
03:19 18.7 °C 9.2 °C 1013.4 hPa NE 13 km/h 6.4 km/h 54 % 0 mm
03:24 18.4 °C 9.2 °C 1013.4 hPa NNE 16.7 km/h 9.7 km/h 55 % 0 mm
03:29 18.2 °C 9.3 °C 1013.4 hPa NE 11.1 km/h 10.5 km/h 56 % 0 mm
03:34 18.1 °C 9.4 °C 1013.4 hPa NE 20.4 km/h 8.7 km/h 57 % 0 mm
03:39 18 °C 9.6 °C 1013.4 hPa ENE 11.1 km/h 10 km/h 58 % 0 mm
03:44 17.9 °C 9.6 °C 1013.4 hPa NE 20.4 km/h 10.5 km/h 58 % 0 mm
03:49 17.9 °C 9.8 °C 1013.1 hPa NNE 25.9 km/h 13 km/h 59 % 0 mm
03:54 17.9 °C 10 °C 1013.1 hPa NNE 25.9 km/h 16.1 km/h 60 % 0 mm
03:59 17.9 °C 10.1 °C 1013.1 hPa NNE 18.5 km/h 12.6 km/h 60 % 0 mm
04:04 17.9 °C 10.1 °C 1013.1 hPa NNE 16.7 km/h 10.9 km/h 60 % 0 mm
04:09 17.9 °C 10.1 °C 1012.8 hPa NNE 19.3 km/h 12.2 km/h 60 % 0 mm
04:14 17.9 °C 10.1 °C 1013.1 hPa NE 20.4 km/h 12.1 km/h 60 % 0 mm
04:19 18 °C 10.4 °C 1012.8 hPa NNE 24.1 km/h 15 km/h 61 % 0 mm
04:24 18.1 °C 10.4 °C 1013.1 hPa NNE 27.4 km/h 9.3 km/h 61 % 0 mm
04:29 18.1 °C 10.4 °C 1012.8 hPa NNE 22.5 km/h 10.3 km/h 61 % 0 mm
04:34 18.2 °C 10.6 °C 1012.8 hPa NNE 29.6 km/h 15.3 km/h 61 % 0 mm
04:39 18.2 °C 10.6 °C 1012.8 hPa NNE 35.2 km/h 13.4 km/h 61 % 0 mm
04:44 18.3 °C 10.6 °C 1012.8 hPa NE 20.4 km/h 14.2 km/h 61 % 0 mm
04:49 18.3 °C 10.6 °C 1012.8 hPa NNE 29 km/h 15 km/h 61 % 0 mm
04:54 18.2 °C 10.8 °C 1012.8 hPa NNE 19.3 km/h 11.7 km/h 62 % 0 mm
04:59 18.2 °C 10.8 °C 1012.8 hPa NNE 20.4 km/h 16.7 km/h 62 % 0 mm
05:04 18.2 °C 10.8 °C 1012.8 hPa NE 18.5 km/h 13.8 km/h 62 % 0 mm
05:09 18.1 °C 10.7 °C 1012.8 hPa NE 25.9 km/h 11.1 km/h 62 % 0 mm
05:14 18.2 °C 10.8 °C 1012.8 hPa NNE 29.6 km/h 11.1 km/h 62 % 0 mm
05:19 18.2 °C 10.8 °C 1012.8 hPa NNE 20.4 km/h 10.6 km/h 62 % 0 mm
05:24 18.2 °C 11 °C 1012.8 hPa NNE 11.1 km/h 6.8 km/h 63 % 0 mm
05:29 17.9 °C 10.8 °C 1012.8 hPa NE 27.8 km/h 10.6 km/h 63 % 0 mm
05:34 17.8 °C 10.9 °C 1012.8 hPa NE 18.5 km/h 10.5 km/h 64 % 0 mm
05:39 17.7 °C 10.8 °C 1012.8 hPa NE 24.1 km/h 9.8 km/h 64 % 0 mm
05:44 17.6 °C 10.9 °C 1012.8 hPa ENE 22.2 km/h 12.4 km/h 65 % 0 mm
05:49 17.6 °C 10.9 °C 1012.8 hPa ENE 22.2 km/h 10.6 km/h 65 % 0 mm
05:54 17.4 °C 11 °C 1012.8 hPa NE 18.5 km/h 11.1 km/h 66 % 0 mm
05:59 17.4 °C 10.9 °C 1012.8 hPa NE 14.8 km/h 9.5 km/h 66 % 0 mm
06:04 17.3 °C 10.9 °C 1012.8 hPa NE 20.4 km/h 10 km/h 66 % 0 mm
06:09 17.3 °C 10.9 °C 1012.8 hPa NE 16.7 km/h 6.4 km/h 66 % 0 mm
06:14 17.2 °C 10.8 °C 1012.8 hPa NNE 18.5 km/h 7.4 km/h 66 % 0 mm
06:19 17.1 °C 10.9 °C 1013.1 hPa NE 20.4 km/h 12.4 km/h 67 % 0 mm
06:24 17.1 °C 10.9 °C 1013.1 hPa NNE 22.2 km/h 9.5 km/h 67 % 0 mm
06:29 17.1 °C 10.9 °C 1013.1 hPa NNE 11.3 km/h 5.5 km/h 67 % 0 mm
06:34 16.9 °C 10.8 °C 1013.1 hPa NNE 13 km/h 5.5 km/h 67 % 0 mm
06:39 17 °C 11.1 °C 1013.1 hPa NE 16.7 km/h 7.7 km/h 68 % 0 mm
06:44 17.2 °C 11 °C 1013.1 hPa NNE 19.3 km/h 14 km/h 67 % 0 mm
06:49 17.3 °C 10.9 °C 1013.4 hPa NNE 35.4 km/h 15.9 km/h 66 % 0 mm
06:54 17.5 °C 11.1 °C 1013.4 hPa NNE 33.3 km/h 18.3 km/h 66 % 0 mm
06:59 17.6 °C 11.1 °C 1013.4 hPa NNE 29 km/h 18.7 km/h 66 % 0 mm
07:04 17.6 °C 10.9 °C 1013.4 hPa NNE 25.9 km/h 18.7 km/h 65 % 0 mm
07:09 17.6 °C 11.1 °C 1013.8 hPa North 25.9 km/h 17.1 km/h 66 % 0 mm
07:14 17.6 °C 10.9 °C 1013.8 hPa NNE 35.2 km/h 19.3 km/h 65 % 0 mm
07:19 17.6 °C 10.9 °C 1013.8 hPa NNE 32.2 km/h 21.4 km/h 65 % 0 mm
07:24 17.6 °C 10.9 °C 1013.8 hPa NNE 38.9 km/h 16.3 km/h 65 % 0 mm
07:29 17.6 °C 10.9 °C 1013.8 hPa NNE 27.4 km/h 24 km/h 65 % 0 mm
07:34 17.5 °C 10.8 °C 1013.8 hPa NNE 33.3 km/h 16.6 km/h 65 % 0 mm
07:39 17.5 °C 10.8 °C 1013.8 hPa NE 31.5 km/h 15.4 km/h 65 % 0 mm
07:44 17.4 °C 10.8 °C 1013.8 hPa NNE 29.6 km/h 14.2 km/h 65 % 0 mm
07:46 17.4 °C 10.8 °C 1013.8 hPa NE 22.2 km/h 12.6 km/h 65 % 0 mm
08:14 17.6 °C 10.9 °C 1014.1 hPa NNE 27.4 km/h 20.9 km/h 65 % 0 mm
08:19 17.8 °C 11.1 °C 1013.8 hPa NNE 25.9 km/h 15 km/h 65 % 0 mm
08:29 17.7 °C 11.1 °C 1013.8 hPa NNE 25.9 km/h 23 km/h 65 % 0 mm
08:34 17.6 °C 11.1 °C 1013.8 hPa NNE 22.2 km/h 10.6 km/h 66 % 0 mm
08:39 17.3 °C 11.3 °C 1013.8 hPa NNE 22.2 km/h 10.3 km/h 68 % 0 mm
08:44 17.1 °C 11.2 °C 1013.8 hPa NNE 22.2 km/h 22.2 km/h 68 % 0 mm
08:49 17 °C 11.1 °C 1013.8 hPa NNE 20.4 km/h 15.8 km/h 68 % 0 mm
08:54 17 °C 11.1 °C 1013.8 hPa NNE 24.1 km/h 16.1 km/h 68 % 0 mm
08:59 17.1 °C 10.9 °C 1013.8 hPa North 25.9 km/h 20.8 km/h 67 % 0 mm
09:04 17.2 °C 11 °C 1013.8 hPa NNE 33.3 km/h 20.9 km/h 67 % 0 mm
09:09 17.2 °C 11.1 °C 1013.8 hPa NE 22.2 km/h 21.6 km/h 67 % 0 mm
09:14 17.3 °C 11.1 °C 1013.8 hPa NE 24.1 km/h 17.9 km/h 67 % 0 mm
09:19 17.3 °C 11.2 °C 1013.8 hPa NE 18.5 km/h 16.6 km/h 67 % 0 mm
09:24 17.5 °C 11.1 °C 1014.1 hPa NE 22.2 km/h 15.8 km/h 66 % 0 mm
09:29 17.7 °C 11 °C 1014.1 hPa NNE 33.3 km/h 23.8 km/h 65 % 0 mm
09:34 17.8 °C 11.1 °C 1014.1 hPa North 30.6 km/h 26.6 km/h 65 % 0 mm
09:39 17.9 °C 11.2 °C 1014.1 hPa NNE 33.3 km/h 22 km/h 65 % 0 mm
09:44 18.2 °C 11.3 °C 1014.1 hPa NNE 37 km/h 24.8 km/h 64 % 0 mm
09:49 18.6 °C 11.4 °C 1014.1 hPa NE 31.5 km/h 20.4 km/h 63 % 0 mm
09:54 18.6 °C 11.4 °C 1014.1 hPa NNE 37 km/h 23.7 km/h 63 % 0 mm
09:59 18.6 °C 11.4 °C 1014.1 hPa NNE 31.5 km/h 14.2 km/h 63 % 0 mm
10:04 18.5 °C 11.3 °C 1014.1 hPa NE 22.5 km/h 19.2 km/h 63 % 0 mm
10:09 18.6 °C 11.4 °C 1014.1 hPa NE 35.2 km/h 18.3 km/h 63 % 0 mm
10:14 18.7 °C 11.5 °C 1014.1 hPa NNE 18.5 km/h 18.7 km/h 63 % 0 mm
10:19 18.8 °C 11.6 °C 1014.1 hPa NE 31.5 km/h 18.7 km/h 63 % 0 mm
10:24 19.4 °C 11.7 °C 1014.1 hPa NNE 42.6 km/h 37.3 km/h 61 % 0 mm
10:29 19.7 °C 11.7 °C 1014.1 hPa NE 41.8 km/h 26.9 km/h 60 % 0 mm
10:34 19.7 °C 12 °C 1014.1 hPa North 30.6 km/h 13.2 km/h 61 % 0 mm
10:39 20 °C 11.7 °C 1014.1 hPa NNE 42.6 km/h 29.9 km/h 59 % 0 mm
10:44 20 °C 11.7 °C 1013.8 hPa NNE 33.3 km/h 24.6 km/h 59 % 0 mm
10:49 19.9 °C 11.6 °C 1014.1 hPa NNE 42.6 km/h 27.4 km/h 59 % 0 mm
10:54 19.8 °C 11.8 °C 1013.8 hPa NNE 29.6 km/h 15.3 km/h 60 % 0 mm
10:59 19.6 °C 11.6 °C 1013.8 hPa NE 35.2 km/h 24.1 km/h 60 % 0 mm
11:04 19.4 °C 11.7 °C 1013.8 hPa NE 25.9 km/h 16.4 km/h 61 % 0 mm
11:09 19.3 °C 11.6 °C 1013.4 hPa NE 24.1 km/h 14.3 km/h 61 % 0 mm
11:14 19.3 °C 11.6 °C 1013.4 hPa NE 31.5 km/h 21.2 km/h 61 % 0 mm
11:19 19.3 °C 11.6 °C 1013.4 hPa North 31.5 km/h 24.1 km/h 61 % 0 mm
11:24 19.4 °C 11.7 °C 1013.4 hPa NNE 27.8 km/h 30.1 km/h 61 % 0 mm
11:29 19.6 °C 11.6 °C 1013.4 hPa NNE 42.6 km/h 23.8 km/h 60 % 0 mm
11:34 19.7 °C 11.7 °C 1013.1 hPa NE 40.7 km/h 27.4 km/h 60 % 0 mm
11:39 19.8 °C 11.8 °C 1013.1 hPa NNE 24.1 km/h 18.7 km/h 60 % 0 mm
11:44 19.8 °C 11.8 °C 1013.1 hPa North 37 km/h 30.1 km/h 60 % 0 mm
11:49 19.8 °C 11.8 °C 1013.1 hPa NNE 40.2 km/h 17.2 km/h 60 % 0 mm
11:54 19.9 °C 12.2 °C 1013.1 hPa NNE 27.8 km/h 12.1 km/h 61 % 0 mm
11:59 20 °C 12 °C 1012.8 hPa NNE 37 km/h 16.1 km/h 60 % 0 mm
12:04 20.1 °C 12.1 °C 1012.8 hPa NNE 37 km/h 21.9 km/h 60 % 0 mm
12:09 20.4 °C 12.4 °C 1012.8 hPa NNE 22.2 km/h 19.8 km/h 60 % 0 mm
12:14 20.7 °C 12.6 °C 1012.8 hPa NE 29.6 km/h 16.4 km/h 60 % 0 mm
12:19 21 °C 12.7 °C 1012.4 hPa NNE 38.9 km/h 18 km/h 59 % 0 mm
12:24 21.3 °C 12.7 °C 1012.4 hPa North 33.8 km/h 16.9 km/h 58 % 0 mm
12:29 21.7 °C 13.1 °C 1012.4 hPa NNE 37 km/h 14 km/h 58 % 0 mm
12:34 22 °C 12.8 °C 1012.4 hPa NNE 35.2 km/h 24 km/h 56 % 0 mm
12:39 22.2 °C 13 °C 1012.1 hPa North 27.8 km/h 21.6 km/h 56 % 0 mm
12:44 22.6 °C 13.1 °C 1012.1 hPa North 35.4 km/h 18.8 km/h 55 % 0 mm
12:49 22.4 °C 12.9 °C 1012.1 hPa NNE 35.2 km/h 17.9 km/h 55 % 0 mm
12:54 22.3 °C 12.8 °C 1011.7 hPa North 31.5 km/h 29.5 km/h 55 % 0 mm
12:59 22.6 °C 13.3 °C 1011.7 hPa NNE 25.9 km/h 19 km/h 56 % 0 mm
13:04 22.8 °C 13.1 °C 1011.7 hPa North 38.9 km/h 28.8 km/h 54 % 0 mm
13:09 22.7 °C 12.6 °C 1011.4 hPa NE 48.1 km/h 25.7 km/h 53 % 0 mm
13:14 22.6 °C 12.8 °C 1011.4 hPa NNE 42.6 km/h 25.9 km/h 54 % 0 mm
13:19 22.8 °C 12.7 °C 1011.4 hPa NNE 33.3 km/h 28.6 km/h 53 % 0 mm
13:24 22.7 °C 12.3 °C 1011.1 hPa NNE 38.9 km/h 26.4 km/h 52 % 0 mm
13:29 22.7 °C 12.9 °C 1011.1 hPa NE 33.3 km/h 10.8 km/h 54 % 0 mm
13:34 22.8 °C 13.1 °C 1011.1 hPa North 29.6 km/h 17.9 km/h 54 % 0 mm
13:39 22.8 °C 12.7 °C 1011.4 hPa NNE 27.8 km/h 18.3 km/h 53 % 0 mm
13:44 22.6 °C 13.1 °C 1011.4 hPa NNE 31.5 km/h 16.7 km/h 55 % 0 mm
13:49 22.6 °C 13.1 °C 1011.4 hPa North 25.9 km/h 23.5 km/h 55 % 0 mm
13:54 22.3 °C 13.1 °C 1011.4 hPa NNE 33.3 km/h 18.5 km/h 56 % 0 mm
13:59 21.8 °C 12.9 °C 1011.4 hPa North 25.9 km/h 23.5 km/h 57 % 0 mm
14:04 21.5 °C 13.2 °C 1011.1 hPa NNE 33.3 km/h 17.4 km/h 59 % 0 mm
14:09 21.3 °C 13.2 °C 1011.4 hPa North 29.6 km/h 18.3 km/h 60 % 0 mm
14:14 21.4 °C 13.1 °C 1011.1 hPa NNE 27.8 km/h 15.4 km/h 59 % 0 mm
14:19 21.4 °C 13.3 °C 1011.1 hPa NNE 18.5 km/h 14.8 km/h 60 % 0 mm
14:24 21.3 °C 13.7 °C 1011.1 hPa NNE 20.9 km/h 15 km/h 62 % 0 mm
14:29 20.9 °C 14.1 °C 1011.1 hPa NNE 18.5 km/h 12.6 km/h 65 % 0 mm
14:34 20.5 °C 14.2 °C 1010.7 hPa NNE 18.5 km/h 10.8 km/h 67 % 0 mm
14:39 20.2 °C 14.3 °C 1010.7 hPa NNE 14.8 km/h 6 km/h 69 % 0 mm
14:44 20.2 °C 14.3 °C 1011.1 hPa NNE 13 km/h 10.8 km/h 69 % 0 mm
14:49 20.3 °C 14.2 °C 1011.1 hPa NNE 16.7 km/h 9.5 km/h 68 % 0 mm
14:54 20.7 °C 13.8 °C 1011.1 hPa NNE 20.4 km/h 15 km/h 65 % 0 mm
14:59 20.9 °C 13.6 °C 1011.1 hPa NNE 16.7 km/h 11.3 km/h 63 % 0 mm
15:04 20.9 °C 13.6 °C 1011.1 hPa NNE 14.8 km/h 9.5 km/h 63 % 0 mm
15:09 20.9 °C 13.1 °C 1011.1 hPa NNE 18.5 km/h 11.6 km/h 61 % 0 mm
15:14 21.1 °C 13.1 °C 1011.1 hPa North 18.5 km/h 14.8 km/h 60 % 0 mm
15:19 21.2 °C 13.1 °C 1011.1 hPa North 18.5 km/h 13.2 km/h 60 % 0 mm
15:24 21.3 °C 13 °C 1011.1 hPa North 22.2 km/h 15.8 km/h 59 % 0 mm
15:29 21.4 °C 13.1 °C 1011.1 hPa NNE 24.1 km/h 12.1 km/h 59 % 0 mm
15:34 21.3 °C 13.2 °C 1011.1 hPa NNE 18.5 km/h 12.2 km/h 60 % 0 mm
15:39 21.4 °C 13.1 °C 1011.1 hPa NNE 31.5 km/h 19.8 km/h 59 % 0 mm
15:44 21.4 °C 13.1 °C 1011.1 hPa NNE 22.2 km/h 14.8 km/h 59 % 0 mm
15:49 21.4 °C 13.6 °C 1011.1 hPa North 20.4 km/h 16.4 km/h 61 % 0 mm
15:54 21.1 °C 13.5 °C 1010.7 hPa NNE 22.2 km/h 18.8 km/h 62 % 0 mm
15:59 20.9 °C 13.6 °C 1010.7 hPa NNE 22.5 km/h 15 km/h 63 % 0 mm
16:04 20.8 °C 13.7 °C 1010.4 hPa NE 20.4 km/h 14.5 km/h 64 % 0 mm
16:09 20.7 °C 13.6 °C 1010 hPa NNE 18.5 km/h 11.9 km/h 64 % 0 mm
16:14 20.6 °C 13.6 °C 1008.7 hPa ENE 27.8 km/h 13.8 km/h 64 % 0 mm
16:19 20.6 °C 13.5 °C 1008.7 hPa NNE 18.5 km/h 11.6 km/h 64 % 0.2 mm
16:24 20.6 °C 13.3 °C 1009 hPa NNE 27.8 km/h 17.2 km/h 63 % 0.2 mm
16:29 20.8 °C 13.3 °C 1009 hPa NE 18.5 km/h 12.7 km/h 62 % 0.2 mm
16:34 20.9 °C 13.1 °C 1008.7 hPa ENE 25.9 km/h 9.5 km/h 61 % 0.2 mm
16:39 21.2 °C 12.8 °C 1008.4 hPa NNE 31.5 km/h 12.9 km/h 59 % 0.2 mm
16:44 21.3 °C 12.4 °C 1008.4 hPa NE 20.4 km/h 10.8 km/h 57 % 0.2 mm
16:49 21.4 °C 12.3 °C 1008 hPa NE 37 km/h 15.6 km/h 56 % 0.2 mm
16:54 21.6 °C 12.2 °C 1008 hPa ENE 29.6 km/h 14.6 km/h 55 % 0.2 mm
16:59 21.7 °C 12.3 °C 1007.7 hPa ENE 25.9 km/h 13.5 km/h 55 % 0.2 mm
17:04 21.7 °C 12.3 °C 1007.7 hPa ENE 16.7 km/h 11.7 km/h 55 % 0.2 mm
17:09 21.9 °C 12.2 °C 1007.7 hPa NE 18.5 km/h 12.2 km/h 54 % 0.2 mm
17:14 22 °C 12 °C 1007.7 hPa East 35.4 km/h 18.7 km/h 53 % 0.2 mm
17:19 22.1 °C 12.1 °C 1008 hPa NE 20.4 km/h 9.3 km/h 53 % 0 mm
17:24 22.1 °C 12.1 °C 1008 hPa NE 24.1 km/h 17.2 km/h 53 % 0 mm
17:29 22.1 °C 12.4 °C 1008.4 hPa ENE 18.5 km/h 11.1 km/h 54 % 0 mm
17:34 22.2 °C 12.1 °C 1008 hPa NE 18.5 km/h 12.4 km/h 53 % 0 mm
17:39 22.3 °C 12 °C 1008 hPa NNE 18.5 km/h 13.5 km/h 52 % 0 mm
17:44 22.4 °C 12.1 °C 1008 hPa NNE 13 km/h 9.7 km/h 52 % 0 mm
17:49 22.5 °C 11.8 °C 1008 hPa NNE 16.7 km/h 12.9 km/h 51 % 0 mm
17:54 22.5 °C 11.6 °C 1008.4 hPa NNE 18.5 km/h 13.8 km/h 50 % 0 mm
17:59 22.6 °C 11.9 °C 1008.4 hPa NE 20.4 km/h 8.2 km/h 51 % 0 mm
18:04 22.6 °C 11.6 °C 1008.7 hPa NNE 22.2 km/h 10.9 km/h 50 % 0 mm
18:09 22.7 °C 11.7 °C 1008.7 hPa NNE 18.5 km/h 11.1 km/h 50 % 0 mm
18:14 22.7 °C 11.4 °C 1008.7 hPa NE 16.7 km/h 12.7 km/h 49 % 0 mm
18:19 22.7 °C 11.4 °C 1008.7 hPa NNE 20.4 km/h 11.6 km/h 49 % 0 mm
18:24 22.8 °C 11.5 °C 1008.7 hPa NNE 25.7 km/h 10.6 km/h 49 % 0 mm
18:29 22.9 °C 11.3 °C 1008.7 hPa NE 18.5 km/h 12.6 km/h 48 % 0 mm
18:34 22.9 °C 11.3 °C 1008.7 hPa NE 27.8 km/h 19.5 km/h 48 % 0 mm
18:39 22.9 °C 11.3 °C 1008.7 hPa NNE 24.1 km/h 9.3 km/h 48 % 0 mm
18:44 22.9 °C 11.3 °C 1008.4 hPa NNE 24.1 km/h 16.9 km/h 48 % 0 mm
18:49 22.9 °C 11.3 °C 1008.4 hPa NNE 18.5 km/h 13.4 km/h 48 % 0 mm
18:54 22.8 °C 11.2 °C 1008.4 hPa NE 24.1 km/h 13.8 km/h 48 % 0 mm
18:59 22.8 °C 11.2 °C 1008 hPa NNE 16.7 km/h 5.3 km/h 48 % 0 mm
19:04 22.7 °C 11.4 °C 1008 hPa NE 16.7 km/h 10.9 km/h 49 % 0 mm
19:09 22.6 °C 11 °C 1008 hPa NE 25.9 km/h 15.3 km/h 48 % 0 mm
19:14 22.6 °C 11 °C 1008 hPa NNE 20.4 km/h 12.9 km/h 48 % 0 mm
19:19 22.5 °C 10.9 °C 1008 hPa NNE 25.9 km/h 15.1 km/h 48 % 0 mm
19:24 22.5 °C 11.2 °C 1008 hPa NE 29.6 km/h 10.3 km/h 49 % 0 mm
19:29 22.5 °C 11.2 °C 1007.7 hPa NE 19.3 km/h 8 km/h 49 % 0 mm
19:34 22.5 °C 10.9 °C 1008 hPa NNE 20.4 km/h 8.7 km/h 48 % 0 mm
19:39 22.5 °C 11.2 °C 1008 hPa NNE 18.5 km/h 6.9 km/h 49 % 0 mm
19:44 22.5 °C 10.9 °C 1008 hPa NNE 22.2 km/h 9.7 km/h 48 % 0 mm
19:49 22.5 °C 10.9 °C 1008 hPa NE 12.9 km/h 7.2 km/h 48 % 0 mm
19:54 22.4 °C 10.9 °C 1007.7 hPa NE 18.5 km/h 6.4 km/h 48 % 0 mm
19:59 22.4 °C 10.8 °C 1008 hPa NE 18.5 km/h 8.4 km/h 48 % 0 mm
20:04 22.4 °C 10.9 °C 1007.7 hPa NE 20.4 km/h 11.1 km/h 48 % 0 mm
20:09 22.5 °C 10.9 °C 1008 hPa NE 13 km/h 10.3 km/h 48 % 0 mm
20:14 22.5 °C 10.9 °C 1008 hPa NE 13 km/h 13 km/h 48 % 0 mm
20:19 22.6 °C 11 °C 1008 hPa NNE 20.4 km/h 9.2 km/h 48 % 0 mm
20:24 22.6 °C 11.1 °C 1008 hPa NNE 18.5 km/h 12.2 km/h 48 % 0 mm
20:29 22.6 °C 11.1 °C 1008.4 hPa NNE 14.8 km/h 10.5 km/h 48 % 0 mm
20:34 22.6 °C 10.7 °C 1008 hPa NE 18.5 km/h 13.2 km/h 47 % 0 mm
20:39 22.7 °C 10.5 °C 1008 hPa NE 18.5 km/h 12.2 km/h 46 % 0 mm
20:44 22.8 °C 10.6 °C 1008.4 hPa NE 18.5 km/h 9.8 km/h 46 % 0 mm
20:49 22.9 °C 10.3 °C 1008.4 hPa NNE 22.5 km/h 15.6 km/h 45 % 0 mm
20:54 22.9 °C 10.4 °C 1008.4 hPa NNE 18.5 km/h 12.1 km/h 45 % 0 mm
20:59 22.9 °C 10.4 °C 1008.4 hPa NE 20.4 km/h 8.4 km/h 45 % 0 mm
21:04 22.9 °C 10.3 °C 1008.4 hPa NNE 14.8 km/h 9.8 km/h 45 % 0 mm
21:09 22.9 °C 10.3 °C 1008.4 hPa NNE 16.7 km/h 7.9 km/h 45 % 0 mm
21:14 22.9 °C 10.3 °C 1008.4 hPa NNE 18.5 km/h 13 km/h 45 % 0 mm
21:19 22.9 °C 10.1 °C 1008.4 hPa NE 22.2 km/h 7.9 km/h 44 % 0 mm
21:24 22.9 °C 10.1 °C 1008 hPa NE 18.5 km/h 9.8 km/h 44 % 0 mm
21:29 22.9 °C 10 °C 1008 hPa North 20.4 km/h 8.7 km/h 44 % 0 mm
21:34 22.8 °C 9.9 °C 1008 hPa ENE 16.7 km/h 9 km/h 44 % 0 mm
21:39 22.9 °C 10 °C 1008 hPa NE 20.4 km/h 7.4 km/h 44 % 0 mm
21:44 22.9 °C 10.1 °C 1008 hPa NE 25.9 km/h 12.6 km/h 44 % 0 mm
21:49 23 °C 10.1 °C 1008 hPa NE 17.7 km/h 10.1 km/h 44 % 0 mm
21:54 23 °C 9.7 °C 1008 hPa NE 22.2 km/h 10.3 km/h 43 % 0 mm
21:59 23.1 °C 9.8 °C 1008 hPa NNE 37 km/h 14.2 km/h 43 % 0 mm
22:04 23.1 °C 9.8 °C 1008 hPa NE 20.4 km/h 12.2 km/h 43 % 0 mm
22:09 23.2 °C 9.9 °C 1007.3 hPa NE 25.7 km/h 14.3 km/h 43 % 0 mm
22:14 23.3 °C 9.7 °C 1007.3 hPa NE 22.2 km/h 16.7 km/h 42 % 0 mm
22:19 23.3 °C 9.7 °C 1007.7 hPa NNE 29.6 km/h 11.3 km/h 42 % 0 mm
22:24 23.3 °C 9.7 °C 1007.7 hPa NE 18.5 km/h 9.8 km/h 42 % 0 mm
22:29 23.3 °C 9.7 °C 1007.7 hPa NE 25.9 km/h 12.2 km/h 42 % 0 mm
22:34 23.3 °C 9.7 °C 1007.7 hPa NNE 25.9 km/h 10 km/h 42 % 0 mm
22:39 23.3 °C 9.3 °C 1007.7 hPa NNE 27.8 km/h 20.4 km/h 41 % 0 mm
22:44 23.3 °C 9.7 °C 1007.7 hPa North 22.2 km/h 12.4 km/h 42 % 0 mm
22:49 23.3 °C 9.7 °C 1007.3 hPa NNE 35.2 km/h 14.6 km/h 42 % 0 mm
22:54 23.2 °C 9.6 °C 1007.3 hPa NE 18.5 km/h 14.3 km/h 42 % 0 mm
22:59 23.2 °C 9.6 °C 1007.3 hPa NNE 18.5 km/h 10.9 km/h 42 % 0 mm
23:04 23.2 °C 9.2 °C 1007.3 hPa East 18.5 km/h 11.7 km/h 41 % 0 mm
23:09 23.2 °C 9.2 °C 1007.7 hPa NNE 24.1 km/h 13.8 km/h 41 % 0 mm
23:14 23.2 °C 9.2 °C 1007.3 hPa ENE 27.4 km/h 13.8 km/h 41 % 0 mm
23:19 23.2 °C 9.2 °C 1007.3 hPa NE 29.6 km/h 12.7 km/h 41 % 0 mm
23:24 23.2 °C 9.2 °C 1007.3 hPa NNE 22.5 km/h 18.3 km/h 41 % 0 mm
23:29 23.2 °C 9.2 °C 1007.3 hPa NE 38.9 km/h 16.6 km/h 41 % 0 mm
23:34 23.3 °C 9.3 °C 1007.7 hPa NE 29.6 km/h 16.6 km/h 41 % 0 mm
23:39 23.3 °C 9.3 °C 1008 hPa NNE 22.2 km/h 7.4 km/h 41 % 0 mm
23:44 23.2 °C 9.6 °C 1009.4 hPa NNW 24.1 km/h 13 km/h 42 % 0 mm
23:49 23.4 °C 9.4 °C 1010.4 hPa NW 27.8 km/h 19 km/h 41 % 0 mm
23:54 22.3 °C 11.1 °C 1010.4 hPa NNW 24.1 km/h 12.4 km/h 49 % 0.61 mm
23:59 21 °C 12.2 °C 1010.4 hPa NW 27.8 km/h 14 km/h 57 % 1.4 mm
Ararat Weather
Compliments of Weather Underground - 2.25 mb
Click here to send mail.


ABOUT

Live weather data from Ararat, Victoria, Australia, 3377
Data uploaded from Cumulus every 5 minutes to Weather Underground.
This site then downloads the raw data for formatting and display.
Metric and imperial data can be displayed. Graphs and historical data available.
Includes Sun and Moon times and rain image live from BOM.

Check out Ararat Weather on Facebook, Twitter and Google +

Help support ongoing costs by checking out the ads





Follow @AraratWeather